Weather History for Winfield, KS

Change the Weather History Date:

Sunday, February 17, 2013

  Actual Average Record
Temperature  
Mean Temperature 50 °F -  
Max Temperature 69 °F 49 °F 78 °F (2011)
Min Temperature 32 °F 30 °F 12 °F (2006)
Degree Days  
Heating Degree Days 14    
Moisture  
Dew Point 30 °F    
Average Humidity 51    
Maximum Humidity 88    
Minimum Humidity 20    
Precipitation  
Precipitation 0.00 in - - ()
Sea Level Pressure  
Sea Level Pressure 29.86 in    
Wind  
Wind Speed 9 mph (SSE)    
Max Wind Speed 25 mph    
Max Gust Speed 37 mph    
Visibility 10 miles    
Events      
Averages and records for this station are not official NWS values.
T = Trace of Precipitation, MM = Missing Value Source: NWS Daily Summary

Daily Weather History Graph

Daily Weather History Graph

Search for Another Location

Airport:

Trip Planner

Search our weather history database for the weather conditions in past years. The results will help you decide how hot, cold, wet, or windy it might be!

Date:

Astronomy

Feb. 17, 2013 Rise Set
Actual Time 7:14 AM CST 6:10 PM CST
Civil Twilight 6:47 AM CST 6:37 PM CST
Nautical Twilight 6:17 AM CST 7:07 PM CST
Astronomical Twilight 5:47 AM CST 7:37 PM CST
Moon 11:18 AM CST (2/17) 12:56 AM CST (2/17)
Length of Visible Light 11h 49m
Length of Day
10h 56m
Waxing Crescent, 49% of the Moon is Illuminated
Feb 17
Waxing Crescent
Feb 17
First Quarter
Feb 25
Full
Mar 4
Last Quarter
Mar 11
New

Hourly Weather History & Observations

Time (CST) Temp. Windchill Dew Point Humidity Pressure Visibility Wind Dir Wind Speed Gust Speed Precip Events Conditions
12:54 AM 34.0 °F 31.0 °F 25.0 °F 70% 30.04 in 10.0 mi ESE 3.5 mph - N/A   Clear
1:54 AM 34.0 °F 29.8 °F 27.0 °F 75% 30.04 in 10.0 mi SSE 4.6 mph - N/A   Clear
2:54 AM 33.1 °F 30.0 °F 28.0 °F 82% 30.03 in 10.0 mi SE 3.5 mph - N/A   Clear
3:54 AM 33.1 °F 30.0 °F 28.0 °F 82% 30.01 in 10.0 mi SE 3.5 mph - N/A   Clear
4:54 AM 32.0 °F 26.4 °F 28.9 °F 88% 30.00 in 10.0 mi South 5.8 mph - N/A   Clear
5:54 AM 34.0 °F - 30.0 °F 85% 30.00 in 10.0 mi Calm Calm - N/A   Clear
6:54 AM 33.1 °F 27.7 °F 28.9 °F 85% 29.99 in 10.0 mi SSE 5.8 mph - N/A   Clear
7:54 AM 36.0 °F 28.0 °F 30.0 °F 79% 29.97 in 10.0 mi South 11.5 mph - N/A   Clear
8:54 AM 43.0 °F 36.4 °F 30.9 °F 62% 29.96 in 10.0 mi South 12.7 mph - N/A   Clear
9:54 AM 48.9 °F - 32.0 °F 52% 29.95 in 10.0 mi South 12.7 mph - N/A   Clear
10:54 AM 53.1 °F - 32.0 °F 45% 29.95 in 10.0 mi South 10.4 mph - N/A   Clear
11:54 AM 57.0 °F - 32.0 °F 39% 29.91 in 10.0 mi South 9.2 mph - N/A   Clear
12:54 PM 63.0 °F - 30.9 °F 30% 29.86 in 10.0 mi South 9.2 mph - N/A   Clear
1:54 PM 66.9 °F - 30.9 °F 26% 29.81 in 10.0 mi South 17.3 mph - N/A   Clear
2:54 PM 66.0 °F - 30.9 °F 27% 29.79 in 10.0 mi South 17.3 mph - N/A   Clear
3:54 PM 69.1 °F - 30.0 °F 23% 29.75 in 10.0 mi South 18.4 mph 26.5 mph N/A   Clear
4:54 PM 69.1 °F - 26.1 °F 20% 29.72 in 10.0 mi South 17.3 mph 27.6 mph N/A   Clear
5:54 PM 64.9 °F - 27.0 °F 24% 29.71 in 10.0 mi South 17.3 mph 23.0 mph N/A   Clear
6:54 PM 57.0 °F - 28.9 °F 34% 29.72 in 10.0 mi SSE 10.4 mph - N/A   Clear
7:54 PM 54.0 °F - 30.9 °F 41% 29.70 in 10.0 mi SSE 9.2 mph - N/A   Clear
8:54 PM 55.9 °F - 32.0 °F 40% 29.69 in 10.0 mi SSE 13.8 mph - N/A   Clear
9:54 PM 57.0 °F - 30.9 °F 37% 29.67 in 10.0 mi South 25.3 mph 29.9 mph N/A   Clear
10:54 PM 55.9 °F - 30.0 °F 37% 29.65 in 10.0 mi South 25.3 mph 36.8 mph N/A   Clear
11:54 PM 55.9 °F - 32.0 °F 40% 29.63 in 10.0 mi South 25.3 mph 36.8 mph N/A   Clear